Погода в Тарапото

Перу     6°30′45″S   76°22′18″W
темп.,
°C
ветер,
м/с
пор.,
м/с
влажн.,
%
обл.,
%
осадки,
мм/ч
давл.,
гПа
погр.,
м
7 мая, пт
пт701:00+20юз1199100 0.9 101327
04:00+19юз12100100 0.7 101372
07:00+20ююз129983 1.4 1015159
10:00+23ююз129065 1.3 1017409
13:00+24ююв129337 5.1 1013652
16:00+24вюв129315 3.5 1011464
19:00+20юв1199100 5.6 101316
22:00+19ю119947 0.6 101624
8 мая, сб
сб801:00+19ююз1199100 0.6 101527
04:00+19ююз1199100 0.0 101533
07:00+19ююз119986 0.1 101682
10:00+24ю1376100 0.8 1018938
13:00+27ююв136054 1.7 10141312
16:00+25зсз007599 0.4 101227
19:00+20сз1194100 0.9 101511
22:00+19зсз009793 0.1 101712
9 мая, вс
вс901:00+18юз119924 0.1 101616
04:00+18юз1199100 0.0 101532
07:00+19юз129796 0.0 101778
10:00+26ююз126494 0.3 1017853
13:00+27вюв126380 0.9 10131091
16:00+23св129341 1.3 1012239
19:00+20ссв119899 1.9 101413
22:00+20с0198100 0.1 101613
10 мая, пн
пн1001:00+20зсз0098100 0.2 101515
04:00+19юз119989 0.0 101416
07:00+19юз119949 0.1 101655
10:00+21ююз119694 0.0 1016163
13:00+24в018421 1.4 1013439
16:00+24св129061 2.8 1011454
19:00+21ссв119868 3.3 101413
22:00+20зсз009899 0.0 101613
11 мая, вт
вт1101:00+20зюз009898 0.5 101515
04:00+19юз1110043 1.2 101423
07:00+19юз11100100 3.6 101684
10:00+24ююз128169 0.7 1017517
13:00+26в017430 1.9 1013946
16:00+24зюз018946 2.4 1011187
19:00+20всв119861 3.6 101311
22:00+19с009997 2.2 101513